Surface/Precipitation History
01/23/2015 20:50  to  1/24/2015 20:50
Change End Date:
Date/Time
(MST)
Sf
Temp Chem Water Layer Surface Precipitation
Sf Sub Frz Factor Pct Depth IcePct Cond Salin Type Intens Accum Rate
01/24/2015 20:42 Ice Watch 31.3F 31F - 95 - - - 6 mhos 592 None None - -
01/24/2015 20:37 Ice Watch 31.3F 31F - 95 - - - 8 mhos 809 None None - -
01/24/2015 20:27 Ice Watch 31.5F 31F - 95 - - - 7 mhos 710 None None - -
01/24/2015 20:27 Ice Watch 31.5F 31F - 95 - - - 7 mhos 710 None None - -
01/24/2015 20:17 Ice Watch 31.5F 31F - 95 - - - 6 mhos 645 None None - -
01/24/2015 20:12 Ice Watch 31.6F 31F - 95 - - - 8 mhos 793 None None - -
01/24/2015 20:07 Ice Watch 31.6F 31F - 95 - - - 7 mhos 743 None None - -
01/24/2015 19:57 Ice Watch 31.6F 31F - 95 - - - 7 mhos 737 None None - -
01/24/2015 19:57 Ice Watch 31.6F 31F - 95 - - - 7 mhos 737 None None - -
01/24/2015 19:47 Ice Watch 31.6F 31F - 95 - - - 6 mhos 610 None None - -
01/24/2015 19:42 Ice Watch 31.8F 31F - 95 - - - 5 mhos 486 None None - -
01/24/2015 19:37 Ice Watch 31.8F 31F - 95 - - - 4 mhos 433 None None - -
01/24/2015 19:27 Ice Watch 32.0F 31F - 95 - - - 3 mhos 302 None None - -
01/24/2015 19:27 Ice Watch 32.0F 31F - 95 - - - 3 mhos 302 None None - -
01/24/2015 19:17 Ice Watch 32.0F 31F - 95 - - - 3 mhos 284 None None - -
Date/Time
(MST)
Sf
Temp Chem Water Layer Surface Precipitation
Sf Sub Frz Factor Pct Depth IcePct Cond Salin Type Intens Accum Rate
01/24/2015 19:12 Ice Watch 31.8F 31F - 95 - - - 2 mhos 237 None None - -
01/24/2015 19:07 Ice Watch 31.8F 31F - 95 - - - 1 mhos 140 None None - -
01/24/2015 18:57 Ice Watch 31.5F 31F - 75 - - - 0 mhos 8 None None - -
01/24/2015 18:57 Ice Watch 31.5F 31F - 75 - - - 0 mhos 8 None None - -
01/24/2015 18:47 Ice Watch 31.8F 31F - 20 - - - 0 mhos 1 None None - -
01/24/2015 18:42 Ice Watch 31.8F 32F - 20 - - - 0 mhos 1 None None - -
01/24/2015 18:37 Ice Watch 31.8F 32F - 30 - - - 0 mhos 1 None None - -
01/24/2015 18:27 Ice Watch 31.8F 32F - 15 - - - 0 mhos 2 None None - -
01/24/2015 18:27 Ice Watch 31.8F 32F - 15 - - - 0 mhos 2 None None - -
01/24/2015 18:17 Trace Moisture 32.2F 32F - 5 - - - 0 mhos 1 None None - -
01/24/2015 18:12 Trace Moisture 32.2F 32F - 5 - - - 0 mhos 1 None None - -
01/24/2015 18:07 Trace Moisture 32.2F 32F - 5 - - - 0 mhos 1 None None - -
01/24/2015 17:57 Trace Moisture 32.2F 32F - 5 - - - 0 mhos 1 None None - -
01/24/2015 17:57 Trace Moisture 32.2F 32F - 5 - - - 0 mhos 1 None None - -
01/24/2015 17:47 Trace Moisture 32.4F 32F - 5 - - - 0 mhos 1 None None - -
Date/Time
(MST)
Sf
Temp Chem Water Layer Surface Precipitation
Sf Sub Frz Factor Pct Depth IcePct Cond Salin Type Intens Accum Rate
01/24/2015 17:42 Trace Moisture 32.4F 32F - 5 - - - 0 mhos 1 None None - -
01/24/2015 17:37 Trace Moisture 32.5F 32F - 5 - - - 0 mhos 1 None None - -
01/24/2015 17:27 Trace Moisture 32.7F 33F - 5 - - - 0 mhos 1 None None - -
01/24/2015 17:27 Trace Moisture 32.7F 33F - 5 - - - 0 mhos 1 None None - -
01/24/2015 17:17 Trace Moisture 33.3F 33F - 5 - - - 0 mhos 1 None None - -
01/24/2015 17:12 Trace Moisture 33.4F 33F - 5 - - - 0 mhos 1 None None - -
01/24/2015 17:06 Trace Moisture 33.4F 33F - 5 - - - 0 mhos 1 None None - -
01/24/2015 16:57 Trace Moisture 33.8F 33F - 5 - - - 0 mhos 0 None None - -
01/24/2015 16:56 Trace Moisture 33.8F 33F - 5 - - - 0 mhos 0 None None - -
01/24/2015 16:46 Trace Moisture 34.2F 33F - 5 - - - 0 mhos 0 None None - -
01/24/2015 16:42 Trace Moisture 34.3F 33F - 5 - - - 0 mhos 0 None None - -
01/24/2015 16:36 Trace Moisture 34.5F 34F - 5 - - - 0 mhos 0 None None - -
01/24/2015 16:27 Trace Moisture 35.1F 34F - 5 - - - 0 mhos 0 None None - -
01/24/2015 16:26 Trace Moisture 35.1F 34F - 5 - - - 0 mhos 0 None None - -
01/24/2015 16:16 Trace Moisture 35.6F 34F - 5 - - - 0 mhos 0 None None - -
Date/Time
(MST)
Sf
Temp Chem Water Layer Surface Precipitation
Sf Sub Frz Factor Pct Depth IcePct Cond Salin Type Intens Accum Rate
01/24/2015 16:12 Trace Moisture 35.8F 34F - 5 - - - 0 mhos 0 None None - -
01/24/2015 16:06 Trace Moisture 36.1F 34F - 5 - - - 0 mhos 0 None None - -
01/24/2015 15:57 Trace Moisture 36.5F 34F - 5 - - - 0 mhos 0 None None - -
01/24/2015 15:56 Trace Moisture 36.5F 34F - 5 - - - 0 mhos 0 None None - -
01/24/2015 15:46 Trace Moisture 36.9F 35F - 10 - - - 0 mhos 0 None None - -
01/24/2015 15:42 Trace Moisture 36.9F 35F - 5 - - - 0 mhos 0 None None - -
01/24/2015 15:36 Trace Moisture 37.2F 35F - 10 - - - 0 mhos 0 None None - -
01/24/2015 15:27 Trace Moisture 37.6F 35F - 5 - - - 0 mhos 0 None None - -
01/24/2015 15:26 Trace Moisture 37.6F 35F - 5 - - - 0 mhos 0 None None - -
01/24/2015 15:16 Trace Moisture 37.8F 35F - 5 - - - 0 mhos 0 None None - -
01/24/2015 15:12 Trace Moisture 37.8F 35F - 5 - - - 0 mhos 0 None None - -
01/24/2015 15:06 Trace Moisture 37.8F 35F - 5 - - - 0 mhos 0 None None - -
01/24/2015 14:57 Trace Moisture 38.1F 35F - 5 - - - 0 mhos 0 None None - -
01/24/2015 14:56 Trace Moisture 38.1F 34F - 5 - - - 0 mhos 0 None None - -
01/24/2015 14:46 Trace Moisture 38.1F 34F - 5 - - - 0 mhos 0 None None - -
Date/Time
(MST)
Sf
Temp Chem Water Layer Surface Precipitation
Sf Sub Frz Factor Pct Depth IcePct Cond Salin Type Intens Accum Rate
01/24/2015 14:42 Trace Moisture 38.1F 34F - 5 - - - 0 mhos 0 None None - -
01/24/2015 14:36 Trace Moisture 37.8F 34F - 5 - - - 0 mhos 1 None None - -
01/24/2015 14:27 Trace Moisture 37.9F 34F - 5 - - - 0 mhos 1 None None - -
01/24/2015 14:26 Trace Moisture 37.9F 34F - 5 - - - 0 mhos 1 None None - -
01/24/2015 14:16 Trace Moisture 37.9F 34F - 5 - - - 0 mhos 2 None None - -
01/24/2015 14:12 Trace Moisture 37.8F 34F - 5 - - - 0 mhos 3 None None - -
01/24/2015 14:06 Trace Moisture 37.2F 33F - 5 - - - 0 mhos 6 None None - -
01/24/2015 13:57 Trace Moisture 36.7F 33F - 5 - - - 0 mhos 8 None None - -
01/24/2015 13:56 Trace Moisture 36.7F 33F - 5 - - - 0 mhos 8 None None - -
01/24/2015 13:45 Trace Moisture 36.0F 33F - 15 - - - 0 mhos 11 None None - -
01/24/2015 13:42 Trace Moisture 35.8F 33F - 20 - - - 0 mhos 12 None None - -
01/24/2015 13:35 Trace Moisture 35.6F 33F - 35 - - - 0 mhos 14 None None - -
01/24/2015 13:27 Trace Moisture 35.2F 33F - 35 - - - 0 mhos 17 None None - -
01/24/2015 13:25 Trace Moisture 35.2F 32F - 35 - - - 0 mhos 19 None None - -
01/24/2015 13:15 Trace Moisture 35.1F 32F - 5 - - - 0 mhos 15 None None - -
Date/Time
(MST)
Sf
Temp Chem Water Layer Surface Precipitation
Sf Sub Frz Factor Pct Depth IcePct Cond Salin Type Intens Accum Rate
01/24/2015 13:12 Trace Moisture 34.7F 32F - 5 - - - 0 mhos 26 None None - -
01/24/2015 13:05 Trace Moisture 35.4F 32F - 5 - - - 0 mhos 2 None None - -
01/24/2015 12:57 Dry 35.6F 32F - - - - - 0 mhos 1 None None - -
01/24/2015 12:55 Dry 35.6F 32F - - - - - 0 mhos 0 None None - -
01/24/2015 12:45 Dry 35.6F 32F - - - - - 0 mhos 1 None None - -
01/24/2015 12:42 Dry 35.6F 32F - - - - - 0 mhos 0 None None - -
01/24/2015 12:35 Dry 35.4F 32F - - - - - 0 mhos 1 None None - -
01/24/2015 12:27 Dry 35.1F 31F - - - - - 0 mhos 1 None None - -
01/24/2015 12:25 Dry 35.1F 31F - - - - - 0 mhos 1 None None - -
01/24/2015 12:15 Dry 34.7F 31F - - - - - 0 mhos 1 None None - -
01/24/2015 12:12 Dry 34.7F 31F - - - - - 0 mhos 1 None None - -
01/24/2015 12:05 Dry 34.9F 31F - - - - - 0 mhos 1 None None - -
01/24/2015 11:58 Dry 34.5F 31F - - - - - 0 mhos 1 None None - -
01/24/2015 11:55 Dry 34.5F 31F - - - - - 0 mhos 1 None None - -
01/24/2015 11:45 Dry 34.9F 31F - - - - - 0 mhos 1 None None - -
Date/Time
(MST)
Sf
Temp Chem Water Layer Surface Precipitation
Sf Sub Frz Factor Pct Depth IcePct Cond Salin Type Intens Accum Rate
01/24/2015 11:42 Dry 34.9F 31F - - - - - 0 mhos 1 None None - -
01/24/2015 11:35 Dry 34.7F 31F - - - - - 0 mhos 1 None None - -
01/24/2015 11:27 Dry 34.2F 31F - - - - - 0 mhos 1 None None - -
01/24/2015 11:25 Dry 33.8F 30F - - - - - 0 mhos 1 None None - -
01/24/2015 11:15 Dry 33.4F 30F - - - - - 0 mhos 1 None None - -
01/24/2015 11:12 Dry 33.4F 30F - - - - - 0 mhos 1 None None - -
01/24/2015 11:05 Dry 33.4F 30F - - - - - 0 mhos 1 None None - -
01/24/2015 10:57 Dry 33.4F 30F - - - - - 0 mhos 1 None None - -
01/24/2015 10:55 Dry 33.4F 30F - - - - - 0 mhos 1 None None - -
01/24/2015 10:45 Dry 32.7F 30F - - - - - 0 mhos 1 None None - -
01/24/2015 10:42 Dry 32.5F 30F - - - - - 0 mhos 1 None None - -
01/24/2015 10:34 Dry 32.2F 30F - - - - - 0 mhos 1 None None - -
01/24/2015 10:27 Dry 31.6F 30F - - - - - 0 mhos 1 None None - -
01/24/2015 10:24 Dry 31.5F 29F - - - - - 0 mhos 1 None None - -
01/24/2015 10:14 Ice Watch 30.9F 29F - 5 - - - 0 mhos 1 None None - -
Date/Time
(MST)
Sf
Temp Chem Water Layer Surface Precipitation
Sf Sub Frz Factor Pct Depth IcePct Cond Salin Type Intens Accum Rate
01/24/2015 10:12 Ice Watch 30.7F 29F - 5 - - - 0 mhos 1 None None - -
01/24/2015 10:04 Ice Watch 30.6F 29F - 5 - - - 0 mhos 2 None None - -
01/24/2015 09:57 Ice Watch 30.2F 29F - 5 - - - 0 mhos 2 None None - -
01/24/2015 09:54 Ice Watch 29.8F 29F - 5 - - - 0 mhos 2 None None - -
01/24/2015 09:44 Ice Watch 29.8F 29F - 5 - - - 0 mhos 2 None None - -
01/24/2015 09:42 Ice Watch 29.8F 29F - 5 - - - 0 mhos 2 None None - -
01/24/2015 09:34 Ice Watch 29.5F 29F - 5 - - - 0 mhos 3 None None - -
01/24/2015 09:27 Ice Watch 29.3F 29F - 5 - - - 0 mhos 3 None None - -
01/24/2015 09:24 Ice Watch 29.3F 29F - 5 - - - 0 mhos 3 None None - -
01/24/2015 09:14 Ice Watch 29.1F 29F - 5 - - - 0 mhos 3 None None - -
01/24/2015 09:12 Ice Watch 29.1F 29F - 5 - - - 0 mhos 3 None None - -
01/24/2015 09:04 Ice Watch 28.9F 29F - 5 - - - 0 mhos 3 None None - -
01/24/2015 08:57 Ice Watch 28.9F 29F - 5 - - - 0 mhos 3 None None - -
01/24/2015 08:54 Ice Watch 28.9F 29F - 5 - - - 0 mhos 3 None None - -
01/24/2015 08:44 Ice Watch 28.8F 29F - 5 - - - 0 mhos 3 None None - -
Date/Time
(MST)
Sf
Temp Chem Water Layer Surface Precipitation
Sf Sub Frz Factor Pct Depth IcePct Cond Salin Type Intens Accum Rate
01/24/2015 08:42 Ice Watch 28.8F 29F - 5 - - - 0 mhos 3 None None - -
01/24/2015 08:34 Ice Watch 28.8F 29F - 5 - - - 0 mhos 3 None None - -
01/24/2015 08:27 Ice Watch 28.4F 28F - 5 - - - 0 mhos 3 None None - -
01/24/2015 08:24 Ice Watch 28.4F 28F - 5 - - - 0 mhos 3 None None - -
01/24/2015 08:14 Ice Watch 28.0F 28F - 5 - - - 0 mhos 3 None None - -
01/24/2015 08:12 Ice Watch 28.0F 28F - 5 - - - 0 mhos 3 None None - -
01/24/2015 08:04 Ice Watch 27.9F 28F - 5 - - - 0 mhos 3 None None - -
01/24/2015 07:57 Ice Watch 27.7F 28F - 5 - - - 0 mhos 4 None None - -
01/24/2015 07:54 Ice Watch 27.7F 28F - 5 - - - 0 mhos 4 None None - -
01/24/2015 07:44 Ice Watch 27.7F 28F - 5 - - - 0 mhos 4 None None - -
01/24/2015 07:42 Ice Watch 27.7F 28F - 5 - - - 0 mhos 4 None None - -
01/24/2015 07:34 Ice Watch 27.7F 28F - 5 - - - 0 mhos 4 None None - -
01/24/2015 07:27 Ice Watch 27.5F 28F - 5 - - - 0 mhos 4 None None - -
01/24/2015 07:24 Ice Watch 27.5F 28F - 5 - - - 0 mhos 4 None None - -
01/24/2015 07:13 Ice Watch 27.3F 28F - 5 - - - 0 mhos 4 None None - -
Date/Time
(MST)
Sf
Temp Chem Water Layer Surface Precipitation
Sf Sub Frz Factor Pct Depth IcePct Cond Salin Type Intens Accum Rate
01/24/2015 07:12 Ice Watch 27.1F 28F - 5 - - - 0 mhos 4 None None - -
01/24/2015 07:03 Ice Watch 27.0F 28F - 5 - - - 0 mhos 4 None None - -
01/24/2015 06:57 Ice Watch 27.1F 28F - 5 - - - 0 mhos 4 None None - -
01/24/2015 06:53 Ice Watch 27.1F 28F - 5 - - - 0 mhos 4 None None - -
01/24/2015 06:43 Ice Watch 27.1F 28F - 5 - - - 0 mhos 4 None None - -
01/24/2015 06:42 Ice Watch 27.1F 28F - 5 - - - 0 mhos 4 None None - -
01/24/2015 06:33 Ice Watch 27.0F 28F - 5 - - - 0 mhos 4 None None - -
01/24/2015 06:28 Ice Watch 26.8F 28F - 5 - - - 0 mhos 4 None None - -
01/24/2015 06:23 Ice Watch 26.4F 28F - 5 - - - 0 mhos 4 None None - -
01/24/2015 06:13 Ice Watch 26.6F 28F - 5 - - - 0 mhos 4 None None - -
01/24/2015 06:12 Ice Watch 26.6F 28F - 5 - - - 0 mhos 4 None None - -
01/24/2015 06:03 Ice Watch 27.1F 28F - 5 - - - 0 mhos 4 None None - -
01/24/2015 05:57 Ice Watch 27.5F 28F - 5 - - - 0 mhos 4 None None - -
01/24/2015 05:53 Ice Watch 27.5F 28F - 5 - - - 0 mhos 4 None None - -
01/24/2015 05:43 Ice Watch 27.5F 28F - 5 - - - 0 mhos 4 None None - -
Date/Time
(MST)
Sf
Temp Chem Water Layer Surface Precipitation
Sf Sub Frz Factor Pct Depth IcePct Cond Salin Type Intens Accum Rate
01/24/2015 05:42 Ice Watch 27.3F 28F - 5 - - - 0 mhos 4 None None - -
01/24/2015 05:33 Ice Watch 27.5F 28F - 5 - - - 0 mhos 4 None None - -
01/24/2015 05:27 Ice Watch 27.5F 28F - 5 - - - 0 mhos 4 None None - -
01/24/2015 05:23 Ice Watch 27.5F 28F - 5 - - - 0 mhos 4 None None - -
01/24/2015 05:13 Ice Watch 27.5F 28F - 5 - - - 0 mhos 4 None None - -
01/24/2015 05:12 Ice Watch 27.7F 28F - 5 - - - 0 mhos 4 None None - -
01/24/2015 05:03 Ice Watch 27.3F 28F - 5 - - - 0 mhos 4 None None - -
01/24/2015 04:57 Ice Watch 27.3F 28F - 5 - - - 0 mhos 4 None None - -
01/24/2015 04:53 Ice Watch 27.1F 28F - 5 - - - 0 mhos 4 None None - -
01/24/2015 04:43 Ice Watch 26.8F 28F - 5 - - - 0 mhos 5 None None - -
01/24/2015 04:42 Ice Watch 26.8F 28F - 5 - - - 0 mhos 5 None None - -
01/24/2015 04:33 Ice Watch 26.4F 28F - 5 - - - 0 mhos 5 None None - -
01/24/2015 04:27 Ice Watch 26.2F 28F - 5 - - - 0 mhos 5 None None - -
01/24/2015 04:23 Ice Watch 26.1F 28F - 5 - - - 0 mhos 5 None None - -
01/24/2015 04:13 Ice Watch 25.9F 28F - 5 - - - 0 mhos 5 None None - -
Date/Time
(MST)
Sf
Temp Chem Water Layer Surface Precipitation
Sf Sub Frz Factor Pct Depth IcePct Cond Salin Type Intens Accum Rate
01/24/2015 04:12 Ice Watch 25.9F 28F - 5 - - - 0 mhos 5 None None - -
01/24/2015 04:02 Ice Watch 25.9F 28F - 5 - - - 0 mhos 5 None None - -
01/24/2015 03:57 Ice Watch 26.2F 28F - 5 - - - 0 mhos 5 None None - -
01/24/2015 03:52 Ice Watch 26.2F 28F - 5 - - - 0 mhos 5 None None - -
01/24/2015 03:42 Ice Watch 26.4F 28F - 5 - - - 0 mhos 5 None None - -
01/24/2015 03:42 Ice Watch 26.4F 28F - 5 - - - 0 mhos 5 None None - -
01/24/2015 03:32 Ice Watch 26.4F 28F - 5 - - - 0 mhos 5 None None - -
01/24/2015 03:27 Ice Watch 26.4F 28F - 5 - - - 0 mhos 5 None None - -
01/24/2015 03:22 Ice Watch 26.4F 28F - 5 - - - 0 mhos 6 None None - -
01/24/2015 03:12 Ice Watch 26.6F 28F - 5 - - - 0 mhos 6 None None - -
01/24/2015 03:12 Ice Watch 26.6F 28F - 5 - - - 0 mhos 6 None None - -
01/24/2015 03:02 Ice Watch 26.4F 28F - 5 - - - 0 mhos 6 None None - -
01/24/2015 02:57 Ice Watch 26.4F 28F - 5 - - - 0 mhos 6 None None - -
01/24/2015 02:52 Ice Watch 26.4F 28F - 5 - - - 0 mhos 6 None None - -
01/24/2015 02:42 Ice Watch 26.2F 28F - 5 - - - 0 mhos 6 None None - -
Date/Time
(MST)
Sf
Temp Chem Water Layer Surface Precipitation
Sf Sub Frz Factor Pct Depth IcePct Cond Salin Type Intens Accum Rate
01/24/2015 02:42 Ice Watch 26.2F 28F - 5 - - - 0 mhos 6 None None - -
01/24/2015 02:32 Ice Watch 26.1F 28F - 5 - - - 0 mhos 6 None None - -
01/24/2015 02:27 Ice Watch 25.9F 28F - 5 - - - 0 mhos 7 None None - -
01/24/2015 02:22 Ice Watch 25.9F 28F - 5 - - - 0 mhos 7 None None - -
01/24/2015 02:12 Ice Watch 25.9F 28F - 5 - - - 0 mhos 7 None None - -
01/24/2015 02:12 Ice Watch 25.9F 28F - 5 - - - 0 mhos 7 None None - -
01/24/2015 02:02 Ice Watch 25.9F 28F - 5 - - - 0 mhos 7 None None - -
01/24/2015 01:57 Ice Watch 26.1F 28F - 5 - - - 0 mhos 6 None None - -
01/24/2015 01:52 Ice Watch 26.2F 28F - 5 - - - 0 mhos 6 None None - -
01/24/2015 01:42 Ice Watch 26.4F 29F - 5 - - - 0 mhos 6 None None - -
01/24/2015 01:42 Ice Watch 26.4F 29F - 5 - - - 0 mhos 6 None None - -
01/24/2015 01:32 Ice Watch 26.6F 29F - 5 - - - 0 mhos 6 None None - -
01/24/2015 01:27 Ice Watch 26.6F 29F - 5 - - - 0 mhos 6 None None - -
01/24/2015 01:22 Ice Watch 26.6F 29F - 5 - - - 0 mhos 6 None None - -
01/24/2015 01:12 Ice Watch 26.6F 29F - 5 - - - 0 mhos 6 None None - -
Date/Time
(MST)
Sf
Temp Chem Water Layer Surface Precipitation
Sf Sub Frz Factor Pct Depth IcePct Cond Salin Type Intens Accum Rate
01/24/2015 01:12 Ice Watch 26.6F 29F - 5 - - - 0 mhos 6 None None - -
01/24/2015 01:02 Ice Watch 26.4F 29F - 5 - - - 0 mhos 7 None None - -
01/24/2015 00:57 Ice Watch 26.4F 29F - 5 - - - 0 mhos 7 None None - -
01/24/2015 00:52 Ice Watch 26.4F 29F - 5 - - - 0 mhos 7 None None - -
01/24/2015 00:42 Ice Watch 26.2F 29F - 5 - - - 0 mhos 7 None None - -
01/24/2015 00:41 Ice Watch 26.2F 29F - 5 - - - 0 mhos 7 None None - -
01/24/2015 00:31 Ice Watch 26.1F 29F - 5 - - - 0 mhos 7 None None - -
01/24/2015 00:27 Ice Watch 26.2F 29F - 5 - - - 0 mhos 7 None None - -
01/24/2015 00:21 Ice Watch 26.4F 29F - 5 - - - 0 mhos 7 None None - -
01/24/2015 00:12 Ice Watch 26.6F 29F - 5 - - - 0 mhos 6 None None - -
01/24/2015 00:11 Ice Watch 26.6F 29F - 5 - - - 0 mhos 6 None None - -
01/24/2015 00:01 Ice Watch 27.0F 29F - 5 - - - 0 mhos 6 None None - -
01/24/2015 00:00 Ice Watch 27.0F 29F - 5 - - - 0 mhos 6 - - - -
01/23/2015 23:51 Ice Watch 27.1F 29F - 5 - - - 0 mhos 6 None None - -
01/23/2015 23:42 Ice Watch 27.7F 29F - 5 - - - 0 mhos 6 None None - -
Date/Time
(MST)
Sf
Temp Chem Water Layer Surface Precipitation
Sf Sub Frz Factor Pct Depth IcePct Cond Salin Type Intens Accum Rate
01/23/2015 23:41 Ice Watch 27.7F 29F - 5 - - - 0 mhos 6 None None - -
01/23/2015 23:31 Ice Watch 27.7F 29F - 5 - - - 0 mhos 6 None None - -
01/23/2015 23:27 Ice Watch 27.7F 29F - 5 - - - 0 mhos 6 None None - -
01/23/2015 23:21 Ice Watch 27.5F 29F - 5 - - - 0 mhos 6 None None - -
01/23/2015 23:12 Ice Watch 27.5F 29F - 5 - - - 0 mhos 6 None None - -
01/23/2015 23:11 Ice Watch 27.5F 29F - 5 - - - 0 mhos 6 None None - -
01/23/2015 23:01 Ice Watch 27.5F 29F - 5 - - - 0 mhos 6 None None - -
01/23/2015 22:57 Ice Watch 27.5F 29F - 5 - - - 0 mhos 6 None None - -
01/23/2015 22:51 Ice Watch 27.7F 29F - 5 - - - 0 mhos 6 None None - -
01/23/2015 22:42 Ice Watch 27.5F 29F - 5 - - - 0 mhos 6 None None - -
01/23/2015 22:41 Ice Watch 27.5F 29F - 5 - - - 0 mhos 7 None None - -
01/23/2015 22:31 Ice Watch 27.1F 29F - 5 - - - 0 mhos 7 None None - -
01/23/2015 22:27 Ice Watch 27.0F 29F - 5 - - - 0 mhos 7 None None - -
01/23/2015 22:21 Ice Watch 27.0F 29F - 5 - - - 0 mhos 7 None None - -
01/23/2015 22:12 Ice Watch 27.0F 29F - 5 - - - 0 mhos 7 None None - -
Date/Time
(MST)
Sf
Temp Chem Water Layer Surface Precipitation
Sf Sub Frz Factor Pct Depth IcePct Cond Salin Type Intens Accum Rate
01/23/2015 22:11 Ice Watch 27.0F 29F - 5 - - - 0 mhos 7 None None - -
01/23/2015 22:01 Ice Watch 26.6F 29F - 5 - - - 0 mhos 7 None None - -
01/23/2015 21:57 Ice Watch 26.4F 29F - 5 - - - 0 mhos 7 None None - -
01/23/2015 21:51 Ice Watch 26.4F 29F - 5 - - - 0 mhos 7 None None - -
01/23/2015 21:42 Ice Watch 26.1F 29F - 5 - - - 0 mhos 7 None None - -
01/23/2015 21:41 Ice Watch 26.1F 29F - 5 - - - 0 mhos 7 None None - -
01/23/2015 21:31 Ice Watch 25.9F 30F - 5 - - - 0 mhos 6 None None - -
01/23/2015 21:27 Ice Watch 25.9F 30F - 5 - - - 0 mhos 5 None None - -
01/23/2015 21:20 Ice Watch 26.1F 30F - 5 - - - 0 mhos 5 None None - -
01/23/2015 21:12 Ice Watch 26.2F 30F - 5 - - - 0 mhos 3 None None - -
01/23/2015 21:10 Ice Watch 26.2F 30F - 5 - - - 0 mhos 3 None None - -
01/23/2015 21:00 Ice Watch 26.4F 30F - 5 - - - 0 mhos 1 None None - -
01/23/2015 20:57 Ice Watch 26.4F 30F - 5 - - - 0 mhos 1 None None - -
01/23/2015 20:50 Ice Watch 26.6F 30F - 5 - - - 0 mhos 1 None None - -
Change End Date:
Copyright © 1998-2005 Surface Systems, Inc.
All Rights Reserved
Send comments about the data to:
SCAN Web ® is a registered trademark of Surface Systems, Inc.
SCAN Web Version 5.6